,,PA_Meas_PMT16A,,PR_Meas_QMR101_102,,RH_Meas_QMH101,,SR_Meas_QMS101,,TA_Meas_QMH101,,GenWind,,GenWind,
time,status,PA,status,PR,status,RH,status,SR,status,TA,status,DirAvg,status,SpdAvg,
2015-04-15, 07:09:04,VALID,917.021,VALID,0,VALID,91.3819,VALID,74.6716,VALID,21.3234,VALID,134,VALID,1.51289,
2015-04-15, 07:10:04,VALID,917.019,VALID,0,VALID,90.6653,VALID,71.8781,VALID,21.3412,VALID,132,VALID,2.06914,
2015-04-15, 07:11:04,VALID,917.047,VALID,0,VALID,90.7491,VALID,66.5061,VALID,21.4014,VALID,138,VALID,1.93516,
2015-04-15, 07:12:04,VALID,917.086,VALID,0,VALID,91.0465,VALID,62.5308,VALID,21.3608,VALID,134,VALID,1.79141,
2015-04-15, 07:13:04,VALID,917.101,VALID,0,VALID,91.5344,VALID,60.5968,VALID,21.3608,VALID,130,VALID,1.77734,
2015-04-15, 07:14:04,VALID,917.145,VALID,0,VALID,92.4797,VALID,63.4977,VALID,21.3217,VALID,137,VALID,1.89102,
2015-04-15, 07:15:04,VALID,917.148,VALID,0,VALID,93.0285,VALID,69.2995,VALID,21.2827,VALID,122,VALID,1.85977,
2015-04-15, 07:16:04,VALID,917.158,VALID,0,VALID,93.4707,VALID,68.44,VALID,21.2827,VALID,132,VALID,1.32539,
2015-04-15, 07:17:04,VALID,917.192,VALID,0,VALID,93.6079,VALID,68.6549,VALID,21.2648,VALID,141,VALID,1.65195,
2015-04-15, 07:18:04,VALID,917.247,VALID,0,VALID,93.6994,VALID,71.8781,VALID,21.2632,VALID,127,VALID,1.38398,
2015-04-15, 07:19:04,VALID,917.309,VALID,0,VALID,93.6918,VALID,74.1344,VALID,21.2827,VALID,147,VALID,1.40547,
2015-04-15, 07:20:04,VALID,917.326,VALID,0,VALID,93.3792,VALID,75.3162,VALID,21.2632,VALID,175,VALID,1.57656,
2015-04-15, 07:21:04,VALID,917.344,VALID,0,VALID,93.364,VALID,72.5228,VALID,21.3038,VALID,175,VALID,0.429688,
2015-04-15, 07:22:04,VALID,917.388,VALID,0,VALID,93.3716,VALID,66.3986,VALID,21.3412,VALID,165,VALID,0,
2015-04-15, 07:23:04,VALID,917.434,VALID,0,VALID,93.0819,VALID,61.0266,VALID,21.3608,VALID,150,VALID,0,
2015-04-15, 07:24:04,VALID,917.475,VALID,0,VALID,93.1048,VALID,56.2992,VALID,21.3624,VALID,138,VALID,0,
2015-04-15, 07:25:04,VALID,917.522,VALID,0,VALID,93.3792,VALID,53.6131,VALID,21.3217,VALID,145,VALID,0,
2015-04-15, 07:26:04,VALID,917.555,VALID,0,VALID,93.6842,VALID,52.9685,VALID,21.3234,VALID,170,VALID,0,
2015-04-15, 07:27:04,VALID,917.565,VALID,0,VALID,93.8747,VALID,50.8197,VALID,21.3022,VALID,173,VALID,0,
2015-04-15, 07:28:04,VALID,917.579,VALID,0,VALID,93.9815,VALID,48.5634,VALID,21.2827,VALID,166,VALID,0,
2015-04-15, 07:29:04,VALID,917.634,VALID,0,VALID,93.707,VALID,48.1336,VALID,21.2827,VALID,147,VALID,0,
2015-04-15, 07:30:04,VALID,917.623,VALID,0,VALID,93.8061,VALID,47.1667,VALID,21.2827,VALID,143,VALID,1.11914,
2015-04-15, 07:31:04,VALID,917.682,VALID,0,VALID,93.8824,VALID,44.803,VALID,21.3038,VALID,135,VALID,1.08516,
2015-04-15, 07:32:04,VALID,917.674,VALID,0,VALID,94.2102,VALID,44.5881,VALID,21.2827,VALID,134,VALID,0,
2015-04-15, 07:33:04,VALID,917.693,VALID,0,VALID,94.294,VALID,45.9848,VALID,21.2827,VALID,167,VALID,0.348437,
2015-04-15, 07:34:04,VALID,917.723,VALID,0,VALID,94.3017,VALID,48.5634,VALID,21.3022,VALID,136,VALID,1.54023,
2015-04-15, 07:35:04,VALID,917.728,VALID,0,VALID,94.0806,VALID,50.4973,VALID,21.3022,VALID,166,VALID,1.80547,
2015-04-15, 07:36:04,VALID,917.77,VALID,0,VALID,93.5393,VALID,50.8197,VALID,21.3608,VALID,135,VALID,2.08984,
2015-04-15, 07:37:04,VALID,917.83,VALID,0,VALID,93.5012,VALID,51.3569,VALID,21.3998,VALID,139,VALID,1.53828,
2015-04-15, 07:38:04,VALID,917.864,VALID,0,VALID,93.4097,VALID,54.1503,VALID,21.3998,VALID,137,VALID,1.24219,
2015-04-15, 07:39:04,VALID,917.853,VALID,0,VALID,93.6384,VALID,58.448,VALID,21.4193,VALID,156,VALID,0,
2015-04-15, 07:40:04,VALID,917.919,VALID,0,VALID,93.5851,VALID,58.7703,VALID,21.4388,VALID,154,VALID,0,
2015-04-15, 07:41:04,VALID,917.942,VALID,0,VALID,93.5164,VALID,59.5224,VALID,21.4388,VALID,173,VALID,0.775781,
2015-04-15, 07:42:04,VALID,917.966,VALID,0,VALID,93.6765,VALID,61.9935,VALID,21.4583,VALID,160,VALID,0.6375,
2015-04-15, 07:43:04,VALID,917.963,VALID,0,VALID,93.7756,VALID,60.3819,VALID,21.4583,VALID,177,VALID,0.0605469,
2015-04-15, 07:44:04,VALID,918.016,VALID,0,VALID,93.8214,VALID,60.9191,VALID,21.4583,VALID,152,VALID,0.00703125,
2015-04-15, 07:45:04,VALID,918.036,VALID,0,VALID,93.7528,VALID,67.9028,VALID,21.4388,VALID,155,VALID,1.34609,
2015-04-15, 07:46:04,VALID,918.061,VALID,0,VALID,93.9662,VALID,78.1097,VALID,21.4388,VALID,147,VALID,0.664063,
2015-04-15, 07:47:04,VALID,918.065,VALID,0,VALID,94.0501,VALID,83.8041,VALID,21.3998,VALID,147,VALID,1.39648,
2015-04-15, 07:48:04,VALID,918.048,VALID,0,VALID,94.1873,VALID,90.4654,VALID,21.4193,VALID,156,VALID,1.32422,
2015-04-15, 07:49:04,VALID,918.074,VALID,0,VALID,94.1797,VALID,97.2342,VALID,21.4193,VALID,136,VALID,1.10742,
2015-04-15, 07:50:04,VALID,918.08,VALID,0,VALID,94.2788,VALID,107.334,VALID,21.4193,VALID,128,VALID,1.20586,
2015-04-15, 07:51:04,VALID,918.08,VALID,0,VALID,94.3093,VALID,115.177,VALID,21.4177,VALID,167,VALID,1.91562,
2015-04-15, 07:52:04,VALID,918.1,VALID,0,VALID,94.6752,VALID,123.235,VALID,21.4778,VALID,167,VALID,0,
2015-04-15, 07:53:04,VALID,918.118,VALID,0,VALID,94.6142,VALID,142.145,VALID,21.4957,VALID,158,VALID,0,
2015-04-15, 07:54:04,VALID,918.108,VALID,0,VALID,94.3855,VALID,159.872,VALID,21.5152,VALID,137,VALID,0,
2015-04-15, 07:55:04,VALID,918.14,VALID,0,VALID,94.3855,VALID,162.988,VALID,21.5542,VALID,136,VALID,1.42656,
2015-04-15, 07:56:04,VALID,918.142,VALID,0,VALID,94.1339,VALID,158.583,VALID,21.5737,VALID,154,VALID,1.40742,
2015-04-15, 07:57:04,VALID,918.143,VALID,0,VALID,93.9205,VALID,156.972,VALID,21.5932,VALID,158,VALID,1.53594,
2015-04-15, 07:58:04,VALID,918.162,VALID,0,VALID,93.9738,VALID,159.228,VALID,21.6339,VALID,174,VALID,0.76875,
2015-04-15, 07:59:04,VALID,918.172,VALID,0,VALID,94.0196,VALID,169.972,VALID,21.6924,VALID,151,VALID,0,
2015-04-15, 08:00:04,VALID,918.17,VALID,0,VALID,93.7985,VALID,185.766,VALID,21.7315,VALID,146,VALID,0.0203125,
2015-04-15, 08:01:04,VALID,918.195,VALID,0,VALID,93.9281,VALID,198.981,VALID,21.7883,VALID,159,VALID,0.257813,
2015-04-15, 08:02:04,VALID,918.185,VALID,0,VALID,92.8685,VALID,212.519,VALID,21.8079,VALID,159,VALID,0.242578,
2015-04-15, 08:03:04,VALID,918.225,VALID,0,VALID,92.6245,VALID,219.073,VALID,21.9071,VALID,182,VALID,0.647656,
2015-04-15, 08:04:04,VALID,918.251,VALID,0,VALID,91.8927,VALID,215.957,VALID,21.9249,VALID,133,VALID,0.000390625,
2015-04-15, 08:05:04,VALID,918.275,VALID,0,VALID,92.0756,VALID,183.617,VALID,22.003,VALID,117,VALID,0,
2015-04-15, 08:06:04,VALID,918.273,VALID,0,VALID,92.0146,VALID,195.221,VALID,22.0615,VALID,125,VALID,0,
2015-04-15, 08:07:04,VALID,918.316,VALID,0,VALID,92.4263,VALID,195.973,VALID,22.1396,VALID,140,VALID,0,
2015-04-15, 08:08:04,VALID,918.34,VALID,0,VALID,92.8227,VALID,173.303,VALID,22.2371,VALID,140,VALID,0,
2015-04-15, 08:09:04,VALID,918.356,VALID,0,VALID,90.1316,VALID,160.625,VALID,22.2762,VALID,136,VALID,0,
2015-04-15, 08:10:04,VALID,918.341,VALID,0,VALID,89.5675,VALID,173.947,VALID,22.3152,VALID,149,VALID,0,
2015-04-15, 08:11:04,VALID,918.369,VALID,0,VALID,89.2245,VALID,180.609,VALID,22.3737,VALID,92,VALID,0,
2015-04-15, 08:12:04,VALID,918.375,VALID,0,VALID,88.363,VALID,210.155,VALID,22.4323,VALID,164,VALID,0,
2015-04-15, 08:13:04,VALID,918.437,VALID,0,VALID,87.8827,VALID,206.502,VALID,22.3933,VALID,148,VALID,0,
2015-04-15, 08:14:04,VALID,918.421,VALID,0,VALID,88.6146,VALID,251.305,VALID,22.3933,VALID,178,VALID,0,
2015-04-15, 08:15:04,VALID,918.398,VALID,0,VALID,88.607,VALID,231.751,VALID,22.4128,VALID,144,VALID,0,
2015-04-15, 08:16:04,VALID,918.456,VALID,0,VALID,88.6603,VALID,232.073,VALID,22.4323,VALID,143,VALID,0,
2015-04-15, 08:17:04,VALID,918.472,VALID,0,VALID,88.1038,VALID,247.222,VALID,22.4908,VALID,186,VALID,0,
2015-04-15, 08:18:04,VALID,918.483,VALID,0,VALID,87.6998,VALID,280.421,VALID,22.5086,VALID,168,VALID,0,
2015-04-15, 08:19:04,VALID,918.52,VALID,0,VALID,88.2334,VALID,282.57,VALID,22.6274,VALID,138,VALID,0.510938,
2015-04-15, 08:20:04,VALID,918.509,VALID,0,VALID,87.5778,VALID,256.462,VALID,22.6665,VALID,146,VALID,0.447266,
2015-04-15, 08:21:04,VALID,918.526,VALID,0,VALID,87.7379,VALID,240.131,VALID,22.725,VALID,188,VALID,0,
2015-04-15, 08:22:04,VALID,918.56,VALID,0,VALID,88.1191,VALID,211.552,VALID,22.7623,VALID,172,VALID,0,
2015-04-15, 08:23:04,VALID,918.603,VALID,0,VALID,87.5473,VALID,146.872,VALID,22.7836,VALID,166,VALID,0,
2015-04-15, 08:24:04,VALID,918.586,VALID,0,VALID,87.3567,VALID,143.649,VALID,22.7445,VALID,158,VALID,0,
2015-04-15, 08:25:04,VALID,918.626,VALID,0,VALID,87.715,VALID,170.724,VALID,22.7818,VALID,163,VALID,0,
2015-04-15, 08:26:04,VALID,918.678,VALID,0,VALID,86.9374,VALID,194.146,VALID,22.8031,VALID,130,VALID,0,
2015-04-15, 08:27:04,VALID,918.689,VALID,0,VALID,86.9603,VALID,191.997,VALID,22.7623,VALID,166,VALID,0,
2015-04-15, 08:28:04,VALID,918.697,VALID,0,VALID,86.9603,VALID,166.104,VALID,22.7836,VALID,140,VALID,0,
2015-04-15, 08:29:04,VALID,918.719,VALID,0,VALID,86.3962,VALID,192.212,VALID,22.7233,VALID,164,VALID,0,
2015-04-15, 08:30:04,VALID,918.759,VALID,0,VALID,86.5334,VALID,197.047,VALID,22.686,VALID,140,VALID,0.410547,
2015-04-15, 08:31:04,VALID,918.751,VALID,0,VALID,86.7392,VALID,216.386,VALID,22.5867,VALID,121,VALID,0.620703,
2015-04-15, 08:32:04,VALID,918.785,VALID,0,VALID,87.3034,VALID,166.749,VALID,22.5672,VALID,124,VALID,0,
2015-04-15, 08:33:04,VALID,918.812,VALID,0,VALID,87.7303,VALID,157.938,VALID,22.5689,VALID,121,VALID,0,
2015-04-15, 08:34:04,VALID,918.832,VALID,0,VALID,86.8764,VALID,182.005,VALID,22.5494,VALID,122,VALID,0,
2015-04-15, 08:35:04,VALID,918.83,VALID,0,VALID,86.198,VALID,154.93,VALID,22.5281,VALID,125,VALID,0,
2015-04-15, 08:36:04,VALID,918.825,VALID,0,VALID,86.6401,VALID,167.071,VALID,22.6079,VALID,125,VALID,0,
2015-04-15, 08:37:04,VALID,918.84,VALID,0,VALID,86.0607,VALID,175.881,VALID,22.7038,VALID,178,VALID,0,
2015-04-15, 08:38:04,VALID,918.86,VALID,0,VALID,85.7787,VALID,173.947,VALID,22.8014,VALID,178,VALID,0,
2015-04-15, 08:39:04,VALID,918.865,VALID,0,VALID,85.3746,VALID,170.079,VALID,22.8989,VALID,178,VALID,0,
2015-04-15, 08:40:04,VALID,918.905,VALID,0,VALID,84.9477,VALID,191.138,VALID,22.977,VALID,178,VALID,0,
2015-04-15, 08:41:04,VALID,918.918,VALID,0,VALID,85.6186,VALID,207.899,VALID,23.0941,VALID,158,VALID,0,
2015-04-15, 08:42:04,VALID,918.921,VALID,0,VALID,84.5742,VALID,196.402,VALID,23.0941,VALID,156,VALID,0,
2015-04-15, 08:43:04,VALID,918.929,VALID,0,VALID,83.3087,VALID,192.749,VALID,23.0746,VALID,176,VALID,0.944531,
2015-04-15, 08:44:04,VALID,918.9,VALID,0,VALID,83.4307,VALID,195.221,VALID,23.0356,VALID,172,VALID,0,
2015-04-15, 08:45:04,VALID,918.924,VALID,0,VALID,84.1701,VALID,191.997,VALID,23.0551,VALID,141,VALID,0,
2015-04-15, 08:46:04,VALID,918.936,VALID,0,VALID,84.2083,VALID,198.014,VALID,23.1349,VALID,154,VALID,0,
2015-04-15, 08:47:04,VALID,918.942,VALID,0,VALID,83.7585,VALID,194.683,VALID,23.1917,VALID,176,VALID,0,
2015-04-15, 08:48:04,VALID,918.93,VALID,0,VALID,84.0024,VALID,201.452,VALID,23.2893,VALID,190,VALID,0.122266,
2015-04-15, 08:49:04,VALID,918.949,VALID,0,VALID,82.7598,VALID,208.328,VALID,23.2893,VALID,199,VALID,0.00585938,
2015-04-15, 08:50:04,VALID,919.005,VALID,0,VALID,82.0661,VALID,217.891,VALID,23.2502,VALID,173,VALID,0,
2015-04-15, 08:51:04,VALID,919.01,VALID,0,VALID,81.7306,VALID,234.329,VALID,23.2502,VALID,181,VALID,0.0890625,
2015-04-15, 08:52:04,VALID,919.047,VALID,0,VALID,82.028,VALID,246.47,VALID,23.3283,VALID,178,VALID,0,
2015-04-15, 08:53:04,VALID,919.082,VALID,0,VALID,82.6302,VALID,242.172,VALID,23.3869,VALID,156,VALID,0,
2015-04-15, 08:54:04,VALID,919.122,VALID,0,VALID,82.8894,VALID,283.645,VALID,23.4064,VALID,125,VALID,0,
2015-04-15, 08:55:04,VALID,919.126,VALID,0,VALID,82.2719,VALID,234.114,VALID,23.5253,VALID,125,VALID,0,
2015-04-15, 08:56:04,VALID,919.165,VALID,0,VALID,83.1105,VALID,236.908,VALID,23.6424,VALID,125,VALID,0,
2015-04-15, 08:57:04,VALID,919.203,VALID,0,VALID,82.0051,VALID,271.074,VALID,23.662,VALID,161,VALID,0,
2015-04-15, 08:58:04,VALID,919.257,VALID,0,VALID,83.1791,VALID,309.108,VALID,23.6992,VALID,207,VALID,0,
2015-04-15, 08:59:04,VALID,919.259,VALID,0,VALID,82.4777,VALID,295.785,VALID,23.7382,VALID,226,VALID,0,
2015-04-15, 09:00:04,VALID,919.274,VALID,0,VALID,83.667,VALID,245.396,VALID,23.7382,VALID,184,VALID,0,
2015-04-15, 09:01:04,VALID,919.301,VALID,0,VALID,83.5908,VALID,241.42,VALID,23.74,VALID,240,VALID,0,
2015-04-15, 09:02:04,VALID,919.292,VALID,0,VALID,84.8867,VALID,241.205,VALID,23.7187,VALID,159,VALID,0.00234375,
2015-04-15, 09:03:04,VALID,919.301,VALID,0,VALID,84.3912,VALID,306.637,VALID,23.6992,VALID,188,VALID,0.0558594,
2015-04-15, 09:04:04,VALID,919.31,VALID,0,VALID,82.9428,VALID,387.97,VALID,23.6406,VALID,153,VALID,0,
2015-04-15, 09:05:04,VALID,919.338,VALID,0,VALID,83.5831,VALID,411.07,VALID,23.5235,VALID,141,VALID,0.0617188,
2015-04-15, 09:06:04,VALID,919.329,VALID,0,VALID,83.2325,VALID,462.534,VALID,23.543,VALID,134,VALID,0,
2015-04-15, 09:07:04,VALID,919.358,VALID,0,VALID,83.423,VALID,539.999,VALID,23.5626,VALID,175,VALID,1.0168,
2015-04-15, 09:08:04,VALID,919.36,VALID,0,VALID,84.2616,VALID,577.496,VALID,23.6406,VALID,114,VALID,0.338672,
2015-04-15, 09:09:04,VALID,919.36,VALID,0,VALID,82.1576,VALID,555.148,VALID,23.8163,VALID,158,VALID,0.799609,
2015-04-15, 09:10:04,VALID,919.36,VALID,0,VALID,83.8042,VALID,562.24,VALID,23.9335,VALID,132,VALID,0,
2015-04-15, 09:11:04,VALID,919.354,VALID,0,VALID,81.5248,VALID,504.114,VALID,24.1269,VALID,154,VALID,0.00429688,
2015-04-15, 09:12:04,VALID,919.35,VALID,0,VALID,80.7777,VALID,631.432,VALID,24.2849,VALID,143,VALID,0.325391,
2015-04-15, 09:13:04,VALID,919.343,VALID,0,VALID,80.1374,VALID,632.399,VALID,24.3806,VALID,144,VALID,0,
2015-04-15, 09:14:04,VALID,919.356,VALID,0,VALID,79.6495,VALID,636.052,VALID,24.5192,VALID,163,VALID,0.641406,
2015-04-15, 09:15:04,VALID,919.345,VALID,0,VALID,77.3624,VALID,628.531,VALID,24.4392,VALID,188,VALID,0.841797,
2015-04-15, 09:16:04,VALID,919.375,VALID,0,VALID,77.9189,VALID,387.11,VALID,24.5973,VALID,200,VALID,0.612891,
2015-04-15, 09:17:04,VALID,919.36,VALID,0,VALID,77.9418,VALID,351.01,VALID,24.5173,VALID,127,VALID,0.424609,
2015-04-15, 09:18:04,VALID,919.406,VALID,0,VALID,77.1947,VALID,347.035,VALID,24.3221,VALID,146,VALID,0.9625,
2015-04-15, 09:19:04,VALID,919.374,VALID,0,VALID,78.7041,VALID,372.606,VALID,24.1677,VALID,163,VALID,0.174609,
2015-04-15, 09:20:04,VALID,919.387,VALID,0,VALID,77.4463,VALID,646.044,VALID,24.0524,VALID,149,VALID,0.615234,
2015-04-15, 09:21:04,VALID,919.413,VALID,0,VALID,77.8579,VALID,657.218,VALID,24.0311,VALID,163,VALID,0,
2015-04-15, 09:23:04,VALID,919.424,VALID,0,VALID,76.8517,VALID,659.904,VALID,24.0665,VALID,151,VALID,0,
2015-04-15, 09:24:04,VALID,919.426,VALID,0,VALID,78.2467,VALID,616.282,VALID,24.2635,VALID,157,VALID,0,
2015-04-15, 09:25:04,VALID,919.436,VALID,0,VALID,77.1718,VALID,359.391,VALID,24.4606,VALID,151,VALID,0,
2015-04-15, 09:26:04,VALID,919.457,VALID,0,VALID,74.8696,VALID,346.82,VALID,24.5582,VALID,192,VALID,0.119531,
2015-04-15, 09:27:04,VALID,919.455,VALID,0,VALID,73.9929,VALID,345.853,VALID,24.6345,VALID,188,VALID,0,
2015-04-15, 09:28:04,VALID,919.458,VALID,0,VALID,75.1059,VALID,344.671,VALID,24.6949,VALID,188,VALID,0,
2015-04-15, 09:29:04,VALID,919.452,VALID,0,VALID,74.2216,VALID,348.754,VALID,24.7907,VALID,186,VALID,0,
2015-04-15, 09:30:04,VALID,919.47,VALID,0,VALID,75.792,VALID,428.583,VALID,24.7926,VALID,142,VALID,0.164063,
2015-04-15, 09:31:04,VALID,919.477,VALID,0,VALID,75.3498,VALID,383.35,VALID,24.7711,VALID,144,VALID,0,
2015-04-15, 09:32:04,VALID,919.452,VALID,0,VALID,73.9624,VALID,350.043,VALID,24.8297,VALID,144,VALID,0,
2015-04-15, 09:33:04,VALID,919.497,VALID,0,VALID,75.4718,VALID,447.278,VALID,24.9859,VALID,134,VALID,0,
2015-04-15, 09:34:04,VALID,919.508,VALID,0,VALID,73.627,VALID,331.563,VALID,25.2027,VALID,121,VALID,0,
2015-04-15, 09:35:04,VALID,919.52,VALID,0,VALID,74.9992,VALID,309.108,VALID,25.1422,VALID,98,VALID,0,
2015-04-15, 09:36:04,VALID,919.528,VALID,0,VALID,71.7973,VALID,299.976,VALID,25.1617,VALID,68,VALID,0,
2015-04-15, 09:37:04,VALID,919.516,VALID,0,VALID,71.6982,VALID,386.573,VALID,25.0836,VALID,68,VALID,0,
2015-04-15, 09:38:04,VALID,919.556,VALID,0,VALID,74.1987,VALID,319.423,VALID,24.9859,VALID,93,VALID,0,
2015-04-15, 09:39:04,VALID,919.554,VALID,0,VALID,73.1467,VALID,296.752,VALID,24.8883,VALID,92,VALID,0,
2015-04-15, 09:40:04,VALID,919.55,VALID,0,VALID,71.4695,VALID,282.463,VALID,24.8883,VALID,65,VALID,0,
2015-04-15, 09:41:04,VALID,919.544,VALID,0,VALID,73.909,VALID,282.785,VALID,24.9274,VALID,65,VALID,0,
2015-04-15, 09:42:04,VALID,919.537,VALID,0,VALID,73.2839,VALID,279.454,VALID,24.8883,VALID,65,VALID,0,
2015-04-15, 09:43:04,VALID,919.515,VALID,0,VALID,72.9103,VALID,258.826,VALID,24.7711,VALID,66,VALID,0,
2015-04-15, 09:44:04,VALID,919.501,VALID,0,VALID,74.0615,VALID,249.586,VALID,24.6716,VALID,66,VALID,0,
2015-04-15, 09:45:04,VALID,919.501,VALID,0,VALID,74.3817,VALID,250.123,VALID,24.6345,VALID,66,VALID,0,
2015-04-15, 09:46:04,VALID,919.518,VALID,0,VALID,74.5341,VALID,250.768,VALID,24.6149,VALID,66,VALID,0,
2015-04-15, 09:47:04,VALID,919.523,VALID,0,VALID,77.37,VALID,248.082,VALID,24.7516,VALID,51,VALID,0,
2015-04-15, 09:48:04,VALID,919.504,VALID,0,VALID,77.0194,VALID,273.223,VALID,24.7321,VALID,43,VALID,0,
2015-04-15, 09:49:04,VALID,919.502,VALID,0,VALID,77.3472,VALID,536.024,VALID,24.693,VALID,57,VALID,0,
2015-04-15, 09:50:04,VALID,919.539,VALID,0,VALID,75.975,VALID,598.125,VALID,24.6735,VALID,50,VALID,0,
2015-04-15, 09:51:04,VALID,919.546,VALID,0,VALID,76.8135,VALID,516.04,VALID,24.7907,VALID,19,VALID,0,
2015-04-15, 09:52:04,VALID,919.523,VALID,0,VALID,75.6929,VALID,468.443,VALID,25.025,VALID,36,VALID,0,
2015-04-15, 09:53:04,VALID,919.524,VALID,0,VALID,75.4718,VALID,761.221,VALID,25.1812,VALID,19,VALID,0,
2015-04-15, 09:54:04,VALID,919.537,VALID,0,VALID,74.8543,VALID,764.766,VALID,25.1793,VALID,31,VALID,0,
2015-04-15, 09:55:04,VALID,919.515,VALID,0,VALID,77.1566,VALID,750.691,VALID,25.2965,VALID,3,VALID,2.09922,
2015-04-15, 09:56:04,VALID,919.51,VALID,0,VALID,75.9902,VALID,764.121,VALID,25.3941,VALID,325,VALID,0.425781,
2015-04-15, 09:57:04,VALID,919.506,VALID,0,VALID,75.2965,VALID,779.593,VALID,25.5913,VALID,18,VALID,1.775,
2015-04-15, 09:58:04,VALID,919.498,VALID,0,VALID,74.5341,VALID,783.031,VALID,25.6284,VALID,33,VALID,0.603906,
2015-04-15, 09:59:04,VALID,919.459,VALID,0,VALID,74.9153,VALID,787.544,VALID,25.648,VALID,345,VALID,0.548047,
2015-04-15, 10:00:04,VALID,919.479,VALID,0,VALID,75.022,VALID,781.527,VALID,25.6655,VALID,12,VALID,2.05781,
2015-04-15, 10:01:04,VALID,919.494,VALID,0,VALID,75.7768,VALID,790.767,VALID,25.7651,VALID,16,VALID,1.38164,
2015-04-15, 10:02:04,VALID,919.496,VALID,0,VALID,75.2965,VALID,788.296,VALID,25.98,VALID,32,VALID,0.090625,
2015-04-15, 10:03:04,VALID,919.463,VALID,0,VALID,74.9534,VALID,797.965,VALID,26.1558,VALID,14,VALID,0.135547,
2015-04-15, 10:04:04,VALID,919.48,VALID,0,VALID,72.4987,VALID,796.891,VALID,26.4077,VALID,8,VALID,0.85,
2015-04-15, 10:05:04,VALID,919.472,VALID,0,VALID,69.8381,VALID,796.461,VALID,26.5444,VALID,28,VALID,1.08711,
2015-04-15, 10:06:04,VALID,919.459,VALID,0,VALID,68.8623,VALID,781.205,VALID,26.3706,VALID,8,VALID,0.55,
2015-04-15, 10:07:04,VALID,919.424,VALID,0,VALID,73.1086,VALID,805.594,VALID,26.1928,VALID,2,VALID,0.207031,
2015-04-15, 10:08:04,VALID,919.462,VALID,0,VALID,75.3651,VALID,579,VALID,26.312,VALID,20,VALID,0.275781,
2015-04-15, 10:09:04,VALID,919.468,VALID,0,VALID,72.7426,VALID,708.359,VALID,26.566,VALID,22,VALID,0,
2015-04-15, 10:10:04,VALID,919.448,VALID,0,VALID,74.8238,VALID,570.727,VALID,26.4898,VALID,20,VALID,1.11719,
2015-04-15, 10:11:04,VALID,919.498,VALID,0,VALID,74.5265,VALID,379.052,VALID,26.4703,VALID,18,VALID,0,
2015-04-15, 10:12:04,VALID,919.521,VALID,0,VALID,73.9319,VALID,308.141,VALID,26.3511,VALID,23,VALID,0,
2015-04-15, 10:13:04,VALID,919.487,VALID,0,VALID,75.7386,VALID,265.057,VALID,26.2144,VALID,17,VALID,0.210938,
2015-04-15, 10:14:04,VALID,919.541,VALID,0,VALID,76.0283,VALID,214.13,VALID,26.0992,VALID,27,VALID,0.00117188,
2015-04-15, 10:15:04,VALID,919.531,VALID,0,VALID,77.3853,VALID,189.634,VALID,25.9019,VALID,44,VALID,0,
2015-04-15, 10:16:04,VALID,919.549,VALID,0,VALID,77.1566,VALID,171.154,VALID,25.5894,VALID,319,VALID,0.513672,
2015-04-15, 10:17:04,VALID,919.553,VALID,0,VALID,78.8871,VALID,176.633,VALID,25.2574,VALID,26,VALID,0.0320312,
2015-04-15, 10:18:04,VALID,919.547,VALID,0,VALID,81.2351,VALID,227.238,VALID,24.9431,VALID,358,VALID,0,
2015-04-15, 10:19:04,VALID,919.553,VALID,0,VALID,82.1271,VALID,238.627,VALID,24.8474,VALID,66,VALID,0.635938,
2015-04-15, 10:20:04,VALID,919.541,VALID,0,VALID,81.7306,VALID,280.744,VALID,24.7888,VALID,112,VALID,0.16875,
2015-04-15, 10:21:04,VALID,919.556,VALID,0,VALID,81.5019,VALID,368.093,VALID,24.6716,VALID,162,VALID,0.0316406,
2015-04-15, 10:22:04,VALID,919.569,VALID,0,VALID,83.0038,VALID,579.86,VALID,24.6326,VALID,25,VALID,0.191406,
2015-04-15, 10:23:04,VALID,919.587,VALID,0,VALID,83.2248,VALID,469.303,VALID,24.7497,VALID,23,VALID,1.3793,
2015-04-15, 10:24:04,VALID,919.559,VALID,0,VALID,80.8463,VALID,451.79,VALID,24.8474,VALID,27,VALID,1.97617,
2015-04-15, 10:25:04,VALID,919.588,VALID,0,VALID,81.9212,VALID,570.298,VALID,24.8083,VALID,38,VALID,1.42656,
2015-04-15, 10:26:04,VALID,919.601,VALID,0,VALID,81.1818,VALID,651.738,VALID,24.7107,VALID,320,VALID,0.972266,
2015-04-15, 10:27:04,VALID,919.657,VALID,0,VALID,82.1804,VALID,387.218,VALID,24.5935,VALID,61,VALID,1.02695,
2015-04-15, 10:28:04,VALID,919.64,VALID,0,VALID,82.7827,VALID,416.227,VALID,24.6112,VALID,24,VALID,0.000390625,
2015-04-15, 10:29:04,VALID,919.672,VALID,0,VALID,82.0127,VALID,761.113,VALID,24.6131,VALID,22,VALID,0,
2015-04-15, 10:30:04,VALID,919.644,VALID,0,VALID,82.4396,VALID,481.121,VALID,24.6131,VALID,350,VALID,0.0671875,
2015-04-15, 10:31:04,VALID,919.629,VALID,0,VALID,82.2109,VALID,603.927,VALID,24.6716,VALID,5,VALID,0.367188,
2015-04-15, 10:32:04,VALID,919.571,VALID,0,VALID,80.7091,VALID,393.879,VALID,24.6716,VALID,346,VALID,0.915625,
2015-04-15, 10:33:04,VALID,919.608,VALID,0,VALID,81.5096,VALID,417.516,VALID,24.5155,VALID,15,VALID,1.95313,
2015-04-15, 10:34:04,VALID,919.595,VALID,0,VALID,82.9351,VALID,593.935,VALID,24.3379,VALID,345,VALID,0.687109,
2015-04-15, 10:35:04,VALID,919.599,VALID,0,VALID,82.9351,VALID,531.941,VALID,24.2812,VALID,277,VALID,0.1375,
2015-04-15, 10:36:04,VALID,919.64,VALID,0,VALID,83.3316,VALID,693.425,VALID,24.3788,VALID,18,VALID,0,
2015-04-15, 10:37:04,VALID,919.652,VALID,0,VALID,82.9123,VALID,930.44,VALID,24.6716,VALID,335,VALID,0,
2015-04-15, 10:38:04,VALID,919.627,VALID,0,VALID,80.4804,VALID,599.199,VALID,25.0231,VALID,7,VALID,0,
2015-04-15, 10:39:04,VALID,919.63,VALID,0,VALID,79.192,VALID,682.466,VALID,25.3141,VALID,347,VALID,0.200781,
2015-04-15, 10:40:04,VALID,919.659,VALID,0,VALID,75.6548,VALID,697.83,VALID,25.4331,VALID,285,VALID,1.54961,
2015-04-15, 10:41:04,VALID,919.656,VALID,0,VALID,78.7956,VALID,596.513,VALID,25.2769,VALID,38,VALID,1.10156,
2015-04-15, 10:42:04,VALID,919.629,VALID,0,VALID,78.5669,VALID,527.536,VALID,25.4136,VALID,36,VALID,0,
2015-04-15, 10:43:04,VALID,919.63,VALID,0,VALID,78.1629,VALID,432.021,VALID,25.3746,VALID,51,VALID,0.184375,
2015-04-15, 10:44:04,VALID,919.658,VALID,0,VALID,77.3091,VALID,274.942,VALID,25.355,VALID,36,VALID,0,
2015-04-15, 10:45:04,VALID,919.628,VALID,0,VALID,79.8172,VALID,220.577,VALID,25.3355,VALID,54,VALID,0.205469,
2015-04-15, 10:46:04,VALID,919.612,VALID,0,VALID,79.0396,VALID,179.964,VALID,25.3141,VALID,49,VALID,0,
2015-04-15, 10:47:04,VALID,919.681,VALID,0,VALID,79.3979,VALID,145.905,VALID,25.1988,VALID,33,VALID,0,
2015-04-15, 10:48:04,VALID,919.716,VALID,0,VALID,79.5122,VALID,111.954,VALID,25.0036,VALID,207,VALID,0,
2015-04-15, 10:49:04,VALID,919.667,VALID,0,VALID,80.8006,VALID,94.978,VALID,24.6912,VALID,345,VALID,0.858203,
2015-04-15, 10:50:04,VALID,919.659,VALID,0,VALID,82.5463,VALID,91.4324,VALID,24.4941,VALID,14,VALID,0.189063,